Tacoma Narrows, WA
on Tuesday, February 12, 2013

Tuesday
Previous Day Next Day
Daily Summary
 ActualAverageRecord
Temperature
Mean Temperature °F °F  
Max Temperature 50°F 46°F 55°F (2004)
Min Temperature 44°F 36°F 32°F (2004)
Degree Days
Heating Degree Days 18    
Moisture
Dew Point 43°F   
Average Humidity 87    
Maximum Humidity 93    
Minimum Humidity 74    
Precipitation
Precipitation 0.01 in in in ()
Wind
Wind Speed 8 mph   
Max Wind Speed 17 mph   
Max Gust Speed 25 mph   
Visibility 9 miles   
Events     
Averages and records for this station are not official NWS values.
Key: T is trace of precipitation, MM is missing value
Source: NWS Daily Summary
Seasonal Weather Averages
Time(PST)TemperatureDew PointHumidity Pressure Visibility Wind DirectionWind SpeedGust SpeedPrecipitationEvents Conditions
12:29 AM 44.6°F 42.8°F 93% 30.36 in 9.0 miles SSW 4.6 mph - N/A   Overcast
12:53 AM 45.0°F 42.1°F 90% 30.36 in 7.0 miles SW 4.6 mph - N/A   Overcast
1:45 AM 44.6°F 42.8°F 93% 30.35 in 9.0 miles South 6.9 mph - 0.01 in   Overcast
1:53 AM 44.1°F 42.1°F 93% 30.36 in 8.0 miles South 9.2 mph - 0.01 in   Overcast
2:17 AM 44.6°F 42.8°F 93% 30.35 in 5.0 miles South 8.1 mph - N/A   Overcast
2:31 AM 44.6°F 42.8°F 93% 30.35 in 4.0 miles South 8.1 mph - N/A   Overcast
2:42 AM 44.6°F 42.8°F 93% 30.36 in 4.0 miles South 9.2 mph - N/A   Overcast
2:53 AM 44.1°F 42.1°F 93% 30.36 in 9.0 miles South 6.9 mph - N/A   Overcast
3:15 AM 44.6°F 42.8°F 93% 30.35 in 10.0 miles South 6.9 mph - N/A   Overcast
3:23 AM 44.6°F 42.8°F 93% 30.35 in 10.0 miles South 6.9 mph - N/A   Overcast
3:53 AM 45.0°F 42.1°F 90% 30.36 in 10.0 miles South 6.9 mph - N/A   Overcast
4:53 AM 44.1°F 42.1°F 93% 30.37 in 10.0 miles South 6.9 mph - N/A   Overcast
5:07 AM 44.6°F 42.8°F 93% 30.36 in 6.0 miles South 6.9 mph - N/A   Overcast
5:53 AM 45.0°F 42.1°F 90% 30.36 in 10.0 miles South 6.9 mph - N/A   Overcast
6:42 AM 44.6°F 42.8°F 93% 30.37 in 10.0 miles South 6.9 mph - N/A   Overcast
6:53 AM 45.0°F 42.1°F 90% 30.37 in 10.0 miles South 9.2 mph - N/A   Overcast
7:53 AM 45.0°F 42.1°F 90% 30.39 in 10.0 miles South 9.2 mph - N/A   Overcast
8:53 AM 45.0°F 42.1°F 90% 30.40 in 10.0 miles South 6.9 mph - N/A   Overcast
9:53 AM 46.0°F 42.1°F 86% 30.39 in 10.0 miles South 11.5 mph - N/A   Overcast
10:53 AM 46.9°F 43.0°F 86% 30.40 in 10.0 miles South 12.7 mph 19.6 mph N/A   Overcast
11:53 AM 46.9°F 43.0°F 86% 30.40 in 10.0 miles South 10.4 mph - N/A   Overcast
11:54 AM 46.4°F 42.8°F 87% 30.39 in 10.0 miles South 10.4 mph - N/A   Overcast
12:53 PM 48.0°F 44.1°F 86% 30.39 in 10.0 miles SSW 11.5 mph - N/A   Overcast
1:53 PM 48.9°F 44.1°F 83% 30.38 in 10.0 miles SSW 11.5 mph 19.6 mph N/A   Mostly Cloudy
2:53 PM 50.0°F 44.1°F 80% 30.35 in 10.0 miles SSW 11.5 mph 19.6 mph N/A   Mostly Cloudy
3:00 PM 50.0°F 42.8°F 76% 30.34 in 10.0 miles South 12.7 mph 19.6 mph N/A   Mostly Cloudy
3:53 PM 50.0°F 42.1°F 74% 30.37 in 10.0 miles SSW 12.7 mph - N/A   Mostly Cloudy
4:53 PM 48.9°F 42.1°F 77% 30.36 in 10.0 miles SSW 11.5 mph 20.7 mph N/A   Overcast
5:53 PM 48.9°F 43.0°F 80% 30.36 in 10.0 miles SSW 11.5 mph - N/A   Overcast
6:53 PM 48.0°F 43.0°F 83% 30.35 in 10.0 miles SSW 13.8 mph 24.2 mph N/A   Overcast
7:00 PM 48.2°F 42.8°F 82% 30.34 in 10.0 miles SW 13.8 mph 24.2 mph N/A   Overcast
7:53 PM 48.0°F 43.0°F 83% 30.32 in 10.0 miles SSW 13.8 mph 21.9 mph N/A   Mostly Cloudy
8:43 PM 46.4°F 42.8°F 87% 30.33 in 10.0 miles SSW 11.5 mph 20.7 mph N/A   Mostly Cloudy
8:53 PM 48.0°F 43.0°F 83% 30.34 in 10.0 miles SSW 10.4 mph 20.7 mph N/A   Overcast
9:10 PM 46.4°F 42.8°F 87% 30.32 in 10.0 miles SSW 9.2 mph 19.6 mph N/A   Overcast
9:53 PM 46.9°F 43.0°F 86% 30.34 in 10.0 miles SSW 8.1 mph 18.4 mph N/A   Mostly Cloudy
10:18 PM 46.4°F 42.8°F 87% 30.32 in 10.0 miles SW 11.5 mph 21.9 mph N/A   Scattered Clouds
10:53 PM 46.9°F 43.0°F 86% 30.33 in 10.0 miles SSW 12.7 mph 21.9 mph N/A   Scattered Clouds
11:53 PM 46.9°F 42.1°F 83% 30.33 in 10.0 miles SSW 17.3 mph 25.3 mph N/A   Partly Cloudy
Moon Phase
Feb. 12 Feb. 17 Feb. 25 Mar. 04 Mar. 11
Sunrise:07:19 AM (PST) Moon Rise:08:05 AM (PST)2/12
Sunset:05:30 PM (PST) Moon Set:08:53 PM (PST)2/12

Copyright © 2014 The Weather Underground, Inc.